Location: Eindhoven
(51.4416°N, 5.4697°E)
Time: 19:53:50
(UTC+01:00)

Tiros 1 - Pass Details

Date: 22 November 2019
Orbit: 630 x 664 km, 48.4° (Epoch: 06 December)

Event Time Altitude Azimuth Distance (km) Brightness Sun altitude
Rises 17:35:18 0° 274° (W) 2,920 11.8 -8.4°
Reaches altitude 10° 17:37:40 10° 269° (W) 2,013 11.0 -8.7°
Maximum altitude 17:42:09 50° 194° (SSW) 809 7.9 -9.4°
Drops below altitude 10° 17:46:38 10° 120° (ESE) 2,021 9.3 -10.0°
Enters shadow 17:48:04 - 116° (ESE) 2,570 9.8 -10.2°
